Location: Newark
(55.8429°N, 38.1995°E)
Time: 01:58:58
(UTC+00:00)

ISS - Pass Details

Date: 30 October 2019
Orbit: 412 x 421 km, 51.6° (Epoch: 18 November)

Event Time Altitude Azimuth Distance (km) Brightness Sun altitude
Exits shadow 03:11:07 - 232° (SW) 1,553 -1.3 -11.2°
Reaches altitude 10° 03:11:14 10° 231° (SW) 1,508 -1.3 -11.2°
Maximum altitude 03:14:19 33° 166° (SSE) 733 -2.3 -10.8°
Drops below altitude 10° 03:17:24 10° 101° (E) 1,508 0.7 -10.4°
Sets 03:19:36 0° 91° (E) 2,372 2.2 -10.1°
